Skip Page Navigation
NASA JPL Caltech
NASA Logo - Jet Propulsion Laboratory + View the NASA Portal
+ Center for Near-Earth Object Studies
JPL Home Earth Solar System Stars & Galaxies Technology
JPL Solar System Dynamics
BODIES ORBITS EPHEMERIDES TOOLS PHYSICAL DATA DISCOVERY FAQ SITE MAP
IMPORTANT: The SSD Announcement email list is now available. Major changes are coming in the near future, including possible hostname and/or URL changes. To be notified of such changes, subscribe to this email list.

Please visit this page for more details.


JPL Small-Body Database Browser
Search: [ help ]  
243129 (2007 RS267)
Classification: Main-belt Asteroid          SPK-ID: 2243129
Ephemeris | Orbit Diagram | Orbital Elements | Mission Design | Physical Parameters | Discovery Circumstances | Close-Approach Data ]

[ show orbit diagram ]
Orbital Elements at Epoch 2458600.5 (2019-Apr-27.0) TDB
Reference: JPL 16 (heliocentric ecliptic J2000)
 Element Value Uncertainty (1-sigma)   Units 
e .2298294895447141 5.8149e-08  
a 3.127027044276035 3.9861e-08 au
q 2.408344014897558 1.9096e-07 au
i 10.27281199417574 7.6385e-06 deg
node 168.616846572993 3.4832e-05 deg
peri 248.233658406083 3.9267e-05 deg
M 359.4285647392936 1.6601e-05 deg
tp 2458603.705977110020
(2019-Apr-30.20597711)
9.3168e-05 TDB
period 2019.741935736189
5.53
3.8619e-05
1.057e-07
d
yr
n .1782405928353323 3.4081e-09 deg/d
Q 3.845710073654512 4.9022e-08 au
  Orbit Determination Parameters
   # obs. used (total)      225  
   data-arc span      5731 days (15.69 yr)  
   first obs. used      2004-03-17  
   last obs. used      2019-11-25  
   planetary ephem.      DE431  
   SB-pert. ephem.      SB431-N16  
   condition code      0  
   norm. resid. RMS      .58761  
   source      ORB  
   producer      Otto Matic  
   solution date      2019-Dec-04 18:25:42  

Additional Information
 Earth MOID = 1.44189 au 
 Jupiter MOID = 1.68318 au 
 T_jup = 3.149 
[ show covariance matrix ]

Ephemeris | Orbit Diagram | Orbital Elements | Mission Design | Physical Parameters | Discovery Circumstances | Close-Approach Data ]

Physical Parameter Table
Parameter Symbol Value Units Sigma Reference Notes
absolute magnitude H 15.8   n/a MPO454783  
diameter diameter 5.411 km 1.060 urn:nasa:pds:neowise_diameters_albedos::2.0[mainbelt] (http://adsabs.harvard.edu/abs/2011ApJ...741...68M)  
geometric albedo albedo 0.029   0.006 urn:nasa:pds:neowise_diameters_albedos::2.0[mainbelt] (http://adsabs.harvard.edu/abs/2011ApJ...741...68M)  

243129 (2007 RS267)          Discovered 2007-Sep-15 by Spacewatch at Kitt Peak
Reference: 20100626/Numbers.arcLast Updated: 2010-06-28

[ hide close-approach data ]
Close-Approach Data   ...sorted by Date/Time (TDB)
Date/Time (TDB) Time Uncertainty
(days_HH:MM)
Body Nominal Distance (au) Minimum Distance (au) Maximum Distance (au) V-relative (km/s) V-infinity (km/s) JD (TDB) Time Uncertainty (minutes) Semi-major axis (km) Semi-minor axis (km) range-LOV angle (deg) N-sigma BP Orbit Ref. Reference Modified
1910-Apr-13 11:50 00:06 Jupiter 1.89581022720703 1.89580689063383 1.89581356382237 3.04989939510235 2.89970916042172 2418774.993331719 6.43969454086854 506.967218280667 35.6945985704336 76.31536248928 1278577.42906767 T 16 CATAB v2.0f-lin.ifort 2019-Dec-04 18:25:50 2019-Dec-04 18:25
1973-Mar-21 22:25 00:03 Jupiter 1.91917659376306 1.91917502980324 1.91917815772516 2.81244886996796 2.65088192415728 2441763.433989255 3.20007923005786 202.352004134154 31.5223553711914 88.4432107502149 865834.470945981 T 16 CATAB v2.0f-lin.ifort 2019-Dec-04 18:25:50 2019-Dec-04 18:25
1983-May-13 13:01 00:02 Jupiter 1.70985206618761 1.70985113872917 1.70985299365353 1.2294483191469 0.721656323387223 2445468.042184047 2.49126720841606 1533.96730304156 204.252421237899 32.6120211703394 3347139.50067628 T 16 CATAB v2.0f-lin.ifort 2019-Dec-04 18:25:50 2019-Dec-04 18:25
1993-Sep-01 00:20 00:01 Jupiter 1.83687825116424 1.83687720190097 1.83687930042792 2.74373993501707 2.57018822391156 2449231.514122094 1.43714593693779 140.520945305192 33.364411335621 82.2357744737785 1162676.74784029 T 16 CATAB v2.0f-lin.ifort 2019-Dec-04 18:25:50 2019-Dec-04 18:25
2056-Aug-23 10:01 00:02 Jupiter 1.96384407296589 1.96384297173182 1.96384517420118 3.50755009566011 3.38234989340432 2472233.917612819 2.36136774679501 171.617247591686 35.5122715626472 85.0875644158905 1217421.2088437 T 16 CATAB v2.0f-lin.ifort 2019-Dec-04 18:25:50 2019-Dec-04 18:25
2066-Oct-28 17:18 00:04 Jupiter 1.7256053127577 1.72560430922016 1.72560631629559 0.970340113870741 n/a 2475952.220688700 3.51567793528362 80.6988597338902 39.3961269056766 64.0150130743317 6052854.71028918 F 16 CATAB v2.0f-lin.ifort 2019-Dec-04 18:25:50 2019-Dec-04 18:25
2077-Jan-23 16:17 00:04 Jupiter 1.79235436862257 1.79235289807632 1.79235583917708 2.37589394351317 2.16788406181134 2479692.178750216 3.84567298989495 298.483422837432 40.5676886978411 89.2874383189789 902111.195595835 T 16 CATAB v2.0f-lin.ifort 2019-Dec-04 18:25:50 2019-Dec-04 18:25
2150-Apr-18 19:57 00:09 Jupiter 1.74136786370851 1.74136610331879 1.74136962406596 1.27475951461071 0.807581256877459 2506439.331418204 9.47912089230858 3772.49220415753 221.227848331127 6.11535873165754 298896.532013035 T 16 CATAB v2.0f-lin.ifort 2019-Dec-04 18:25:50 2019-Dec-04 18:25
2160-Jun-23 12:20 00:09 Jupiter 1.75361194792218 1.75360960136306 1.75361429450861 1.92169472534798 1.65132635966107 2510158.013789372 9.38923588360651 593.61832708119 122.919113230136 -63.5999795669075 544225.004180471 T 16 CATAB v2.0f-lin.ifort 2019-Dec-04 18:25:50 2019-Dec-04 18:25

Alternate Designations
 2007 RS267 = 2004 FC71 = 2007 TR289 
Ephemeris | Orbit Diagram | Orbital Elements | Mission Design | Physical Parameters | Discovery Circumstances | Close-Approach Data ]
ABOUT SSD CREDITS/AWARDS PRIVACY/COPYRIGHT GLOSSARY LINKS
FirstGov 2020-Jan-27 19:34 UT
(server date/time)  
NASA Home Page
Site Manager:   Ryan S. Park
Webmaster  Alan B. Chamberlin